Showing default

DIWATA 2B, 43678

Orbit data source: Space-Track

DIWATA 2B, 43678 is a Filipino payload satellite in SSO that was launched on Mon, 29 Oct 2018 UTC via an H-IIA 202 launch vehicle from the Tanegashima Space Center (TNSTA). Payloads include a variety of satellites, spacecraft, and rockets equipped with specific instruments for various scientific and technological missions. These include communications satellites like Starlink; space stations such as the ISS; scientific satellites like the Hubble; Earth observation satellites from companies like Planet Labs, Umbra, and HawkEye 360; GPS; miniature CubeSats for education and research; and military/defense satellites.

Loading next visibility...
DIWATA 2B details
Identifier
43678, 2018-084H
Orbit
SSO
Last TLE update9 hours ago
Origin
Flag of PHDOST/UPD (PH / RP)
ManufacturerUPD/HOKK
MissionOperational Civil Imaging
Bus & MotorDIWATA, Unknown motor
Mass56 kg wet, 56 kg dry
Launch date (UTC)
2018-10-29 (6 years ago)
Launch vehicle
H-IIA 202
Launch site
Tanegashima Space Center (TNSTA)
Object type
Payload
Rocket body
Debris
Shape & HBRBox + 2 Pan, Unknown HBR
Radar Cross Section0.514 m², Medium (>0.1 m² and < 1m²)

Expand to show TLE details & history

TLE from 9 hours ago
0 DIWATA 2B
1 43678U 18084H   24336.89703638  .00003934  00000-0  34921-3 0  9992
2 43678  98.0872 140.1757 0008279 187.7369 172.3725 14.96759213331995
Epoch: 2024-12-01T21:31Z
Definitive object data (Epoch: 2024-12-01T21:31:43.943Z)
Latitude-0.00002°
Longitude106.01395°
Altitude585.665 km
Speed7.564 km/s
True Right ascension09h 20m 42s
True Declination0° 00' 00"
Sunlit
Object was in daylight at TLE epoch
Visualization TLE readout
Latitude-64.32539°
Longitude123.51204°
Altitude603.262 km
Speed7.556 km/s
Apparent Right ascension14h 28m 48s
Apparent Declination-61° 12' 54"
Sunlit
Object is in daylight
Visualization observer readout
Local Sidereal Time04:37:46
Azimuth147.985° SSE
Elevation-61.015°
Doppler factor1
Orbital elements
Apogee altitude579.7 km
Perigee altitude568.189 km
Semi-major axis6,952.082 km
Eccentricity0.0008279
Inclination98.0872°
RAAN140.1757°
Arg. of periapsis187.7369°
True anomaly172.38508°
Mean anomaly172.3725°
Eccentric anomaly172.37879°
Mean motion3.7443 °/min
BSTAR0.00034921
Orbital period96.15 mins
Loading maneuver chart data...

DIWATA 2B Visibility forecast

Observer location: undefined°, undefined

Span
Click to sort rows by Start time (UTC) header in descending order
Start Az.
Max El. time (UTC)
Max El. Az.
Max El.
End time (UTC)
End Az.
7 mins2024-12-02 10:29:48.336Z133.005° SE2024-12-02 10:32:48.336Z82.519° E28.372°2024-12-02 10:36:48.336Z6.896° NNE
4 mins2024-12-02 12:06:48.336Z236.752° WSW2024-12-02 12:08:48.336Z272.599° WNW17.129°2024-12-02 12:10:48.336Z304.528° NW
6 mins2024-12-02 23:46:48.336Z25.541° NE2024-12-02 23:49:48.336Z126.032° SE40.127°2024-12-02 23:52:48.336Z179.751° S
|